DELTA 1 DEB, 26827

Orbit data source: Space-Track

DELTA 1 DEB, 26827 is space debris in SSO originally from a launch on Thu, 12 Jun 1975 UTC launched from the Air Force Western Test Range (AFWTR). Debris objects in space refer to the collection of defunct objects orbiting the Earth. Examples of debris include non-operational satellites, rocket bodies, and fragments generated from explosions, collisions, or faulty payload assembly.

Loading next visibility...
Identifier
26827, 1975-052KF
Orbit
SSO
Country
Flag of USUS
Related business
Manufacturer
Unknown
Mission
Spacecraft
Bus & Motor
Unknown
Mass
Unknown
Launch date (UTC)
1975-06-12 (50 years ago)
Launch vehicle
Unknown
Launch site
Air Force Western Test Range (AFWTR)
Object type
Payload
Rocket body
Debris
Shape & HBR
Unknown shape, 0.1 m
Radar Cross Section
Small (<0.1 m²)

Expand to show TLE details & history
Last TLE update: 1 week ago

TLE from 1 week ago
0 DELTA 1 DEB
1 26827U 75052KF  25300.60562191  .00000869  00000-0  18565-2 0  9994
2 26827  99.7657 237.9428 0112777   9.4994 167.6703 13.30879805564217
Epoch: 2025-10-27T14:32Z
TLE epoch observation values (Epoch: 2025-10-27T14:32:05.733Z)
Latitude
2.42514°
Longitude
164.1294°
Altitude
1,228.85 km
Speed
7.2 km/s
True Right ascension
03h 53m 26s
True Declination
2° 24' 42"
Sunlit
Object was in full shadow at epoch
Visualization orbit readout
Latitude
Unknown
Longitude
Unknown
Altitude
Unknown
Speed
Unknown
Apparent Right ascension
Unknown
Apparent Declination
Unknown
Sunlit
N/A
Visualization observer readout
Local Sidereal Time
02:42:49
Azimuth
Unknown
Elevation
Unknown
Doppler factor
Unknown
Orbital elements
Apogee altitude
1,225.572 km
Perigee altitude
1,055.98 km
Semi-major axis
7,518.913 km
Eccentricity
0.01128
Inclination
99.7657°
RAAN
237.9428°
Arg. of periapsis
9.4994°
True anomaly
167.94251°
Mean anomaly
167.6703°
Eccentric anomaly
167.80678°
Mean motion
3.32898 °/min
Orbital period
108.14 mins
BSTAR
0.0018565
Loading maneuver chart data...
Computing Atmospheric mass density...
Loading historical data...
Loading historical data...
Loading historical data...
Loading historical data...
Loading historical data...
Loading historical data...
Loading historical data...

Documentation

Showing up to 5 results
|